Location: Bay Ridge
(40.6340°N, 74.0146°W)
Time: 20:57:36
(UTC+00:00)

Cosmos 2369 - Pass Details

Date: 15 November 2019
Orbit: 838 x 858 km, 71.0° (Epoch: 07 December)

Event Time Altitude Azimuth Distance (km) Brightness Sun altitude
Exits shadow 09:17:11 56° 190° (S) 1,012 3.9 -27.5°
Drops below altitude 10° 09:21:45 10° 167° (SSE) 2,482 6.3 -26.7°
Sets 09:24:11 0° 165° (SSE) 3,414 7.1 -26.2°
